sat.trackr.live / text

‹ back to catalog

STARLINK-3856

NORAD 52459 · 2022-049J

PAYLOAD ACTIVE UNKNOWN

§ Identity

Operator
Country
US
Launch date
2022-05-06
Launch site
AFETR
Launch vehicle
Mass (kg)
RCS (m²)

Purposes: comms

External: N2YO · Heavens-Above · Gunter

§ Orbital elements

Epoch: 2026-09-20T00:24:05.727744Z

Period
93.90 min
Inclination
53.1593°
Eccentricity
0.0001154
Mean motion
15.33548480 rev/d
Perigee alt
464.4 km
Apogee alt
466.0 km
Semi-major
6,843.4 km
B*
1.8852e-5
RAAN
256.1985°
Arg perigee
83.8300°
Mean anomaly
276.2834°
Rev number
24,172

§ Raw data

STARLINK-38561 52459U 22049J   26263.01673296  .00000247  00000+0  18852-4 0  99952 52459  53.1593 256.1985 0001154  83.8300 276.2834 15.33548480241721

JSON: /api/v1/satellites/52459 · /tle

For live sub-satellite position, see the globe view (requires WebGL).

§ Visibility from observer

Set your observer location to see the next 7 days of passes ≥ 10°. The values pass through the URL so the page stays shareable.

No JS? Fill the form by hand. The geolocation button needs JavaScript.